Location: Dompnac
(44.5644°N, 4.1026°E)
Time: 10:54:30
(UTC+00:00)

Iridium 4 Rocket - Pass Details

Date: 19 September 2020
Orbit: 584 x 905 km, 86.9° (Epoch: 29 October)

Event Time Altitude Azimuth Distance (km) Brightness Sun altitude
Rises 18:36:36 0° 189° (S) 3,055 6.6 -9.8°
Reaches altitude 10° 18:38:48 10° 192° (SSW) 2,190 5.9 -10.1°
Maximum altitude 18:43:40 66° 275° (W) 836 4.0 -11.0°
Drops below altitude 10° 18:49:03 10° 357° (N) 2,417 6.3 -11.9°
Sets 18:51:35 0° 1° (N) 3,400 7.0 -12.4°
